Regional Weather Roundup
Issued by NWS

Home | Current Version | Previous Version | Text Only | Print | Product List | Glossary Off
Versions: 1 2 3 4 5 6 7 8 9 10 11 12 13 14 15 16 17 18 19 20 21 22 23 24 25 26 27 28 29 30 31 32 33 34 35 36 37 38 39 40 41 42 43 44 45 46 47 48 49 50

000
ASUS45 KTFX 231519
RWRMT
MONTANA HOURLY WEATHER ROUNDUP
NATIONAL WEATHER SERVICE GREAT FALLS MT
919 AM MDT WED JUL 23 2014

NOTE: "FAIR" INDICATES FEW OR NO CLOUDS BELOW 12000 FEET WITH NO
SIGNIFICANT WEATHER AND/OR OBSTRUCTIONS TO VISIBILITY.

* THESE STATIONS ARE NOT UNDER NWS QUALITY CONTROL. THEY DO NOT
   REPORT WEATHER SUCH AS PRECIPITATION OR FOG.

MTZ001>007-043-231600-
WEST OF THE DIVIDE
CITY           SKY/WX    TMP DP  RH WIND       PRES   REMARKS
KALISPELL      PTSUNNY   64  57  78 VRB3      30.11F
MISSOULA       PTCLDY    66  55  68 E8        30.14S
BUTTE          SUNNY     61  48  62 CALM      30.29F
MULLAN PASS    SUNNY     54  48  80 SE8G21    30.18F
* ESSEX        N/A       56  52  87 NE2        N/A
* LINCOLN      N/A       59  56  90 NW2        N/A
* LOOKOUT PASS N/A       56  56 100 SW5        N/A
* POLSON       N/A       63  56  78 NE3        N/A
* RONAN APT    PTCLDY    63  59  87 N/A        N/A
* SEELEY LAKE  N/A       58  57  96 NW3        N/A
* THOMP F APT  SUNNY     62  43  50 NW11G24    N/A
* YAAK HILL    N/A       60  55  84 N2         N/A
$$

MTZ008-052>055-231600-
SOUTHWEST MONTANA
CITY           SKY/WX    TMP DP  RH WIND       PRES   REMARKS
BOZEMAN        PTCLDY    64  54  70 NE5       30.24R
DILLON         SUNNY     64  52  65 W5        30.26S
W YELLOWSTONE  PTCLDY    59  45  60 CALM      30.33R
* THREE FORKS  SUNNY     70  70 100 N/A        N/A
* BOULDER HILL N/A       61  46  58 N9         N/A
* MONIDA PASS  N/A       59  43  56 W22        N/A
* RAYNOLDS PAS N/A       59  57  93 NW2        N/A
* WHITEHALL    N/A       66  53  63 SW3        N/A
* WISE RIVER   N/A       58  52  81 NW3        N/A
$$

MTZ009>010-012-014-046-048-049-054-231600-
EAST SLOPES AND CENTRAL MONTANA
CITY           SKY/WX    TMP DP  RH WIND       PRES   REMARKS
CUT BANK       CLOUDY    61  55  81 NE6       30.13F
GREAT FALLS    PTSUNNY   64  59  84 S7        30.16F
HELENA         PTSUNNY   70  54  57 CALM      30.19F
* CONRAD       CLOUDY    61  61 100 N/A        N/A
* DEARBORN     N/A       65  58  78 NE2        N/A
* EAST GLACIER N/A       64  48  56 W18        N/A
* MONARCH      N/A       67  48  51 VRB4       N/A
* PENDROY      N/A       63  60  90 SW3        N/A
* ROGERS PASS  N/A       59  54  84 SW6        N/A
* SAINT MARY   N/A       56  54  93 S2G7       N/A
* SWEET GRASS  N/A       59  59 100 S17G23     N/A
* WHITE SULPH  N/A       65  56  73 NW3G10     N/A
$$

MTZ011-013-016-021-035-040-045-047-050-051-231600-
NORTH CENTRAL MONTANA
CITY           SKY/WX    TMP DP  RH WIND       PRES   REMARKS
HAVRE          CLOUDY    66  55  68 S3        30.15F
LEWISTOWN      PTSUNNY   72  57  59 NW5       30.19S
* FORT BENTON  CLOUDY    66  55  68 E5        30.16S
* CHESTER      N/A       60  56  87 NE7G14     N/A
* DENTON       N/A       70  56  61 N10        N/A
* GEYSER       N/A       68  54  61 N/A        N/A
* JUDITH GAP   N/A       67  59  76 N/A        N/A
* LOMA         N/A       65  60  84 E4         N/A
$$

MTZ017>020-022>027-061-062-231600-
NORTHEAST MONTANA
CITY           SKY/WX    TMP DP  RH WIND       PRES   REMARKS
GLASGOW        PTCLDY    73  61  66 E20       30.16S
GLENDIVE       SUNNY     72  61  68 S10       30.21S
JORDAN         PTCLDY    73  63  71 E12       30.15F
SIDNEY         SUNNY     77  63  62 SE8       30.20F
WOLF POINT     PTCLDY    73  61  66 E10       30.18S
* BEAVER HILL  N/A       68  62  81 SE11       N/A
* CIRCLE       N/A       73  63  71 E8         N/A
* LINDSAY DVD  N/A       68  61  78 E9         N/A
* NAVAJO       N/A       64  61  90 SE5        N/A
$$

MTZ028>042-056>058-231600-
SOUTHCENTRAL AND SOUTHEAST MONTANA
CITY           SKY/WX    TMP DP  RH WIND       PRES   REMARKS
BAKER          SUNNY     72  63  73 S10       30.23F
BILLINGS       PTCLDY    64  57  78 SW6       30.15S
LIVINGSTON     PTCLDY    66  54  65 NW8       30.22R
MILES CITY     PTCLDY    73  63  71 E6        30.17F
* LAUREL APT   PTCLDY    63  55  75 N/A        N/A
* ROUNDUP APT  PTCLDY    66  59  78 E7         N/A
* ALZADA       N/A       73  62  69 NE4        N/A
* HYSHAM       N/A       72  58  62 E10        N/A
* LAME DEER    N/A       67  59  76 S15        N/A
* REED POINT   N/A       66  56  70 NW1G6      N/A
* ROSCOE HILL  N/A       67  46  47 NW6        N/A
$$

REGIONAL REPORTS...DAKOTAS
CITY           SKY/WX    TMP DP  RH WIND       PRES   REMARKS
WILLISTON      PTCLDY    75  63  66 E6        30.22S
DICKINSON      SUNNY     72  63  73 S16       30.23S
CROSBY         CLOUDY    66  66 100 E13       30.25F
TIOGA          PTCLDY    72  72 100 SE14      30.27F
WATFORD CITY   SUNNY     73  63  71 SE12      30.20F
BISMARCK       SUNNY     73  61  66 SE15      30.28S
GRAND FORKS    PTSUNNY   66  59  78 N5        30.30F
FARGO          CLOUDY    66  59  78 NE3       30.30S
BUFFALO SD     SUNNY     70  63  79 SE6       30.18S
RAPID CITY     SUNNY     75  59  58 SW14      30.24S
$$

REGIONAL REPORTS...WYOMING/IDAHO/WASHINGTON
CITY           SKY/WX    TMP DP  RH WIND       PRES   REMARKS
GILLETTE       CLOUDY    72  61  68 SE17G25   30.26F
SHERIDAN       PTCLDY    73  61  66 SE12      30.18F
CODY           PTCLDY    72  46  40 SE7       30.23F
YELLOWSTONE LA PTCLDY    66  41  40 CALM      30.43S
SALMON         SUNNY     66  54  65 NW6       30.21S
MULLAN PASS    SUNNY     54  48  80 SE8G21    30.18S
SAND POINT     PTSUNNY   66  55  68 NE13      30.05F
SPOKANE        SUNNY     68  54  61 NE8       30.02F
$$

REGIONAL REPORTS...ALBERTA
CITY           SKY/WX    TMP DP  RH WIND       PRES   REMARKS
CALGARY        PTSUNNY   68  45  44 VRB2      30.10S
LETHBRIDGE     PTSUNNY   59  57  93 S9        30.10F
MEDICINE HAT   CLOUDY    70  59  68 N5        30.10R
EDMONTON       PTSUNNY   63  57  81 S7        30.01R
WATERTON GATE  N/A       63  54  73 SW13       N/A
CARDSTON       N/A       64  57  78 S3         N/A
$$

REGIONAL REPORTS...SASKATCHEWAN
CITY           SKY/WX    TMP DP  RH WIND       PRES   REMARKS
SWIFT CURRENT  SUNNY     70  61  73 N/A       30.17F
MOOSE JAW      PTCLDY    66  59  78 SE13      30.24F
REGINA         N/A       70  59  68 SE15      30.26F
VAL MARIE      N/A       73  57  57 SE9        N/A
ASSINIBOIA     N/A       68  59  73 E12        N/A
CORONACH       N/A       68  61  78 E12        N/A

$$



USA.gov is the U.S. government's official web portal to all federal, state and local government web resources and services.